Social login voor leden:
METAR EBOS 200720Z 18008KT 9999 BKN017 BKN035 05/02 Q1018 TEMPO FM0900 23015G25KT 3000 DZRA BKN005
TAF EBOS 200500Z 2006/2112 20010KT 9999 FEW015 SCT020 TEMPO 2008/2010 3000 RADZ SCT005 BKN010 BECMG 2011/2013 26015G25KT TEMPO 2012/2019 26018G33KT PROB30 TEMPO 2014/2112 3000 RADZ SCT005 BKN009

NZVC is de eerste Belgische vliegclub met een erkenning als 'Approved Training Organisation (ATO)'

Sinds 3 maart 2015 is de Noordzee Vliegclub Oostende erkend door de Europese Unie en de Belgian Civil Aviation Authority als Approved Training Organisation (ATO). Hierbij zijn we de eerste vliegclub in België die voldoet aan de nieuwste en strengste Europese normen inzake organisatie, kwaliteit en veiligheid bij de opleiding tot Privaat Piloot (PPL).

 

Opleiding Piloot
Meevliegen
Visit Us
Agenda
Opleiding Piloot
Doopvluchten
Visit Us
Volgende activiteit
Noordzee Vliegclub - Nieuwpoortsesteenweg 947 8400 Oostende - Tel 059 30 04 79 - Dit e-mailadres wordt beveiligd tegen spambots. JavaScript dient ingeschakeld te zijn om het te bekijken.

 - Copyright 2017 ©